Regional Weather Roundup
Issued by NWS

Home | Current Version | Previous Version | Graphics & Text | Print | Product List | Glossary On
Versions: 1 2 3 4 5 6 7 8 9 10 11 12 13 14 15 16 17 18 19 20 21 22 23 24 25 26 27 28 29 30 31 32 33 34 35 36 37 38 39 40 41 42 43 44 45 46 47 48 49 50
000
ASUS43 KMPX 081601
RWRMN
WEATHER ROUNDUP FOR MINNESOTA
NATIONAL WEATHER SERVICE TWIN CITIES/CHANHASSEN MN
1000 AM CST THU DEC 08 2016


NOTE: "FAIR" INDICATES FEW OR NO CLOUDS BELOW 12,000 FEET WITH NO
SIGNIFICANT WEATHER AND/OR OBSTRUCTIONS TO VISIBILITY. N/A MEANS
CURRENT SKY AND/OR WEATHER CONDITIONS ARE NOT AVAILABLE.

MNZ060>063-068>070-081700-
   Twin Cities Metro

CITY           SKY/WX    TMP DP  RH WIND       PRES   REMARKS
TWIN CITIES    PTSUNNY   23  14  68 NW18      30.34R WCI   9
ST PAUL        PTSUNNY   22  15  75 NW17      30.35R WCI   8
CRYSTAL        PTSUNNY   22  12  65 NW15G26   30.34R WCI   9
BLAINE         MOSUNNY   25  18  74 NW14G21   30.31R WCI  13
LAKEVILLE      FLURRIES  19  16  86 NW16      30.34R WCI   5
EDEN PRAIRIE   CLOUDY    23  14  68 NW15G24   30.34R WCI  10
SOUTH ST PAUL  PTSUNNY   24  15  69 NW14G21   30.34R WCI  11
LAKE ELMO      CLOUDY    23  18  80 NW13      30.33R WCI  11
$$
MNZ001>005-007-008-013>017-022>024-027-028-081700-
   Northwest Minnesota

CITY           SKY/WX    TMP DP  RH WIND       PRES   REMARKS
BEMIDJI        FLURRIES  15  10  83 NW15      30.34R WCI  -1
HALLOCK        CLOUDY    16  12  86 NW20G25   30.48R WCI  -1
ROSEAU         CLOUDY    18  12  79 N13       30.41R WCI   4
WARROAD        MOSUNNY   18  12  79 NW12      30.40R WCI   5
THIEF RVR FALL LGT SNOW  16  13  88 NW16      30.43R FOG     WCI   1
CROOKSTON      LGT SNOW  14  12  92 N22G28    30.47R VSB 3/4 WCI  -4
FOSSTON        LGT SNOW  12   9  85 W12       30.41R WCI  -2
DETROIT LAKES  LGT SNOW  16  12  86 NW20G25   30.41R WCI  -1
MOORHEAD       MIX PCPN  14  10  85 NW21      30.49R WCI  -4
PARK RAPIDS    MIX PCPN  16   7  67 NW14      30.35R WCI   2
$$
MNZ006-009>011-018-025>026-081700-
   North Central Minnesota

CITY           SKY/WX    TMP DP  RH WIND       PRES   REMARKS
BAUDETTE       LGT SNOW  20  13  74 N18       30.34R WCI   5
FLAG ISLAND    CLOUDY    18  12  79 N17G26    30.38R WCI   2
INTL FALLS     CLOUDY    20  15  81 NW14      30.29R HAZE    WCI   7
WASKISH        FLURRIES  18  14  86 NW10      30.34R WCI   6
BIG FORK       CLOUDY    19  16  86 NW8       30.29R WCI   9
LONGVILLE      LGT SNOW  19  14  79 NW13G21   30.32R WCI   7
GRAND RAPIDS   FLURRIES  19  14  81 NW10      30.30R WCI   7
CRANE LAKE     LGT SNOW  19  16  86 N9        30.26R WCI   9
ORR            FLURRIES  18  14  86 NW7       30.22R WCI   8
COOK           CLOUDY    19  16  86 NW7       30.24R WCI  10
$$
MNZ012-019>021-037-081700-
   Northeast Minnesota

CITY           SKY/WX    TMP DP  RH WIND       PRES   REMARKS
DULUTH         CLOUDY    20  15  81 NW15G28   30.20R WCI   6
ELY            CLOUDY    19  16  86 NW12G20   30.19R WCI   7
HIBBING        MIX PCPN  18  14  84 NW18      30.24R WCI   2
EVELETH        PTSUNNY   20  15  81 NW14G25   30.23R WCI   7
DULUTH HARBOR  MOSUNNY   25  18  74 NW14G23   30.26R WCI  13
TWO HARBORS    SUNNY     25  18  74 NW8       30.18R WCI  16
SILVER BAY     SUNNY     23  18  80 NW8G16    30.17R WCI  14
GRAND MARAIS     N/A     25  17  72 NW8       30.16R WCI  16
G MARAIS ARPRT LGT SNOW  18  10  73 NW8G16    30.09R WCI   7
$$
MNZ029>031-032-039>041-046>048-054>057-064-081700-
   West Central Minnesota

CITY           SKY/WX    TMP DP  RH WIND       PRES   REMARKS
FERGUS FALLS   CLOUDY    14  10  85 NW25      30.50R FOG     WCI  -5
WHEATON        CLOUDY    14   9  79 W18G25    30.53R WCI  -3
MORRIS         CLOUDY    12   9  85 NW22G28   30.46R WCI  -7
ALEXANDRIA     FLURRIES  16  10  77 NW22G29   30.40R WCI  -2
ELBOW LAKE     LGT SNOW  13  10  89 NW21      30.45R WCI  -5
WADENA         FLURRIES  14   9  79 NW16G23   30.37R WCI  -2
GLENWOOD       LGT SNOW  16  10  79 W17G24    30.41R WCI   0
APPLETON       CLOUDY    14   7  73 NW18G29   30.49R WCI  -3
BENSON         FLURRIES  16   9  73 N22G31    30.46R WCI  -2
ORTONVILLE     CLOUDY    12   7  79 NW16G25   30.50R WCI  -4
MADISON        CLOUDY    16   9  73 NW21G29   30.52R WCI  -2
WILLMAR        LGT SNOW  18  12  79 NW21      30.44R WCI   1
$$
MNZ033>034-036-042>043-049>051-058-059-081700-
   Central Minnesota

CITY           SKY/WX    TMP DP  RH WIND       PRES   REMARKS
ST CLOUD       PTSUNNY   21  14  74 NW14G24   30.35R WCI   8
PAYNESVILLE    MOSUNNY   19  13  77 NW18G25   30.39R WCI   4
AITKIN         MIX PCPN  23  12  63 NW10G16   30.29R WCI  12
PINE RIVER     FLURRIES  18  12  79 NW13G18   30.36R WCI   4
BRAINERD       CLOUDY    19  11  70 NW16G26   30.33R WCI   4
STAPLES        CLOUDY    16  10  79 NW14      30.36R WCI   1
LONG PRAIRIE   PTSUNNY   18  10  73 W16G24    30.38R WCI   3
LITTLE FALLS   CLOUDY    21  12  68 W13G18    30.36R WCI   9
LITCHFIELD     PTSUNNY   19  14  79 NW17G23   30.39R WCI   4
BUFFALO        PTSUNNY   22  14  69 W16G22    30.37R WCI   9
MAPLE LAKE     PTSUNNY   23  16  75 NW15G28   30.37R WCI  10
HUTCHINSON     FLURRIES  19  14  80 W20G26    30.39R WCI   4
$$
MNZ037-044-045-052-053-081700-
   East Central Minnesota

CITY           SKY/WX    TMP DP  RH WIND       PRES   REMARKS
PRINCETON      MOSUNNY   23  16  74 NW15G22   30.33R WCI  10
MORA           FLURRIES  25  18  74 NW12      30.31R WCI  14
CAMBRIDGE      FLURRIES  23  14  68 NW14G20   30.30R WCI  11
RUSH CITY      PTSUNNY   23  14  68 NW14      30.30R WCI  11
MOOSE LAKE     PTSUNNY   21  14  73 NW13G20   30.26R WCI   9
HINCKLEY       PTSUNNY   23  16  74 NW13G21   30.28R WCI  11
CLOQUET        MOSUNNY   19  14  79 NW13      30.23R WCI   7
MCGREGOR       CLOUDY    21  16  79 NW15G23   30.29R WCI   8
$$
MNZ071>073-080-081-089-090-097-098-081700-
   Southwest Minnesota

CITY           SKY/WX    TMP DP  RH WIND       PRES   REMARKS
MONTEVIDEO     LGT SNOW  14   9  79 N18G25    30.49R WCI  -3
GRANITE FALLS  CLOUDY    16  11  80 W25G31    30.50R WCI  -3
CANBY          CLOUDY    15   8  73 W20G28    30.52R WCI  -2
MARSHALL       FLURRIES  14   7  73 NW22G33   30.48R WCI  -4
REDWOOD FALLS  FLURRIES  15   8  73 NW16      30.47R WCI  -1
OLIVIA         LGT SNOW  18  12  79 NW16      30.44R WCI   3
PIPESTONE      MOSUNNY   10   5  79 NW17G25   30.48R WCI  -7
WINDOM         FLURRIES  14   9  79 NW25G31   30.44R WCI  -5
WORTHINGTON    MOSUNNY   12   7  80 NW22      30.47R WCI  -7
JACKSON        FLURRIES  14   9  79 NW20G30   30.45R WCI  -3
TRACY          PTSUNNY   15  10  78 NW21G28   30.47R WCI  -2
SLAYTON        SUNNY     11   6  81 NW18G28   30.45R WCI  -7
$$
MNZ065>067-074>077-082>085-091>093-081700-
   South Central Minnesota

CITY           SKY/WX    TMP DP  RH WIND       PRES   REMARKS
MANKATO        SUNNY     17  12  80 W22G28    30.40R WCI   0
NEW ULM        FLURRIES  16  10  79 NW24G31   30.43R WCI  -3
ST JAMES       FLURRIES  16  10  79 W22G31    30.45R WCI  -2
FAIRMONT       FLURRIES  15   9  76 NW25G33   30.44R WCI  -4
GLENCOE        CLOUDY    21  17  84 W18       30.38R WCI   6
OWATONNA       LGT SNOW  18  12  79 W17G26    30.35R WCI   2
WASECA         LGT SNOW  19  14  79 W18G28    30.38R WCI   4
ALBERT LEA     LGT SNOW  21  16  79 NW14G22   30.36R WCI   8
$$
MNZ078>079-086>088-094>096-081700-
   Southeast Minnesota

CITY           SKY/WX    TMP DP  RH WIND       PRES   REMARKS
ROCHESTER      CLOUDY    18  14  84 NW18      30.30R WCI   2
RED WING       CLOUDY    23  16  74 W8G17     30.31R WCI  14
STANTON        FLURRIES  22  16  79 W13       30.34R WCI   9
DODGE CENTER   FLURRIES  18  12  79 W16G25    30.32R WCI   3
WINONA         CLOUDY    23  18  80 NW13      30.32R WCI  11
AUSTIN         FLURRIES  18  12  79 NW21      30.34R WCI   1
PRESTON        LGT SNOW  17  13  82 NW15G21   30.31R WCI   3
$$
ABBREVIATIONS USED IN REMARKS
   TC - TEMPERATURES IN CELSIUS
  WCI - WIND CHILL INDEX
   HX - HEAT INDEX
  VSB - VISIBILITY
$$



USA.gov is the U.S. government's official web portal to all federal, state and local government web resources and services.